�������l�o���
Date,Time,MP-1(��Sv/h),MP-2(��Sv/h),MP-3(��Sv/h),MP-4(��Sv/h),MP-5(��Sv/h),MP-6(��Sv/h),MP-7(��Sv/h),MP-8(��Sv/h),����,����(m/s),���J
2022/08/20,00:00,0.597,0.847,0.537,1.022,0.735,0.343,0.591,0.556,��쐼,4.2,��
2022/08/20,00:10,0.596,0.846,0.536,1.022,0.734,0.341,0.592,0.555,��쐼,4.4,��
2022/08/20,00:20,0.597,0.846,0.536,1.021,0.734,0.342,0.592,0.555,��쐼,3.3,��
2022/08/20,00:30,0.596,0.843,0.536,1.023,0.735,0.341,0.592,0.556,��쐼,4.2,��
2022/08/20,00:40,0.595,0.845,0.535,1.021,0.735,0.343,0.593,0.556,��쐼,5.2,��
2022/08/20,00:50,0.596,0.847,0.536,1.022,0.736,0.341,0.592,0.558,��쐼,5.6,��
2022/08/20,01:00,0.596,0.845,0.535,1.022,0.735,0.343,0.592,0.557,��쐼,6.1,��
2022/08/20,01:10,0.596,0.843,0.534,1.022,0.736,0.342,0.591,0.556,��쐼,5.6,��
2022/08/20,01:20,0.596,0.846,0.537,1.020,0.737,0.343,0.592,0.557,��쐼,5.4,��
2022/08/20,01:30,0.597,0.847,0.535,1.021,0.734,0.340,0.593,0.557,��쐼,5.4,��
2022/08/20,01:40,0.597,0.845,0.536,1.021,0.736,0.342,0.594,0.556,��쐼,5.5,��
2022/08/20,01:50,0.597,0.847,0.537,1.021,0.734,0.341,0.593,0.557,��쐼,5.8,��
2022/08/20,02:00,0.596,0.845,0.537,1.020,0.737,0.343,0.594,0.559,��쐼,6.3,��
2022/08/20,02:10,0.595,0.845,0.535,1.023,0.735,0.341,0.593,0.559,��쐼,6.0,��
2022/08/20,02:20,0.598,0.846,0.538,1.022,0.735,0.341,0.595,0.557,��,5.7,��
2022/08/20,02:30,0.596,0.845,0.536,1.022,0.734,0.342,0.594,0.557,��쐼,6.1,��
2022/08/20,02:40,0.596,0.845,0.536,1.021,0.733,0.342,0.593,0.557,��쐼,5.1,��
2022/08/20,02:50,0.597,0.843,0.536,1.024,0.736,0.342,0.594,0.558,��,4.7,��
2022/08/20,03:00,0.595,0.847,0.536,1.022,0.737,0.341,0.592,0.557,��쐼,4.4,��
2022/08/20,03:10,0.597,0.846,0.536,1.022,0.735,0.341,0.594,0.557,��쐼,5.3,��
2022/08/20,03:20,0.596,0.846,0.537,1.022,0.733,0.342,0.594,0.557,��,4.7,��
2022/08/20,03:30,0.597,0.846,0.536,1.021,0.736,0.343,0.594,0.556,��쐼,4.2,��
2022/08/20,03:40,0.599,0.846,0.538,1.025,0.735,0.343,0.595,0.556,��쐼,5.0,��
2022/08/20,03:50,0.597,0.844,0.537,1.021,0.735,0.343,0.595,0.557,��쐼,4.7,��
2022/08/20,04:00,0.597,0.847,0.538,1.023,0.735,0.342,0.595,0.557,��쐼,5.1,��
2022/08/20,04:10,0.596,0.844,0.535,1.023,0.737,0.341,0.595,0.558,��쐼,5.8,��
2022/08/20,04:20,0.597,0.846,0.534,1.023,0.734,0.342,0.595,0.558,��쐼,5.4,��
2022/08/20,04:30,0.598,0.844,0.536,1.021,0.736,0.342,0.595,0.560,��쐼,4.5,��
2022/08/20,04:40,0.598,0.847,0.537,1.024,0.736,0.341,0.594,0.558,��,4.6,��
2022/08/20,04:50,0.596,0.847,0.537,1.021,0.737,0.343,0.595,0.558,��,5.3,��
2022/08/20,05:00,0.598,0.847,0.536,1.023,0.735,0.341,0.594,0.558,��,5.6,��
2022/08/20,05:10,0.597,0.846,0.535,1.021,0.736,0.341,0.595,0.559,��,6.3,��
2022/08/20,05:20,0.595,0.847,0.537,1.021,0.735,0.342,0.594,0.558,��,6.7,��
2022/08/20,05:30,0.596,0.847,0.538,1.023,0.735,0.341,0.594,0.558,��,7.5,��
2022/08/20,05:40,0.596,0.845,0.535,1.024,0.736,0.342,0.595,0.558,��,7.6,��
2022/08/20,05:50,0.598,0.846,0.535,1.022,0.735,0.342,0.595,0.556,��,7.4,��
2022/08/20,06:00,0.596,0.847,0.536,1.024,0.736,0.340,0.594,0.559,��,5.3,��
2022/08/20,06:10,0.596,0.846,0.536,1.023,0.737,0.342,0.594,0.558,��,4.7,��
2022/08/20,06:20,0.596,0.846,0.536,1.021,0.736,0.344,0.595,0.557,��,4.9,��
2022/08/20,06:30,0.596,0.845,0.536,1.023,0.736,0.341,0.594,0.557,��,5.5,��
2022/08/20,06:40,0.597,0.844,0.535,1.023,0.735,0.342,0.594,0.558,��,4.6,��
2022/08/20,06:50,0.597,0.847,0.534,1.022,0.735,0.342,0.595,0.557,��,4.2,��
2022/08/20,07:00,0.595,0.844,0.536,1.023,0.735,0.342,0.595,0.559,��,5.2,��
2022/08/20,07:10,0.595,0.844,0.536,1.024,0.736,0.342,0.596,0.558,��,4.9,��
2022/08/20,07:20,0.596,0.846,0.534,1.023,0.735,0.340,0.595,0.557,��,4.9,��
2022/08/20,07:30,0.596,0.845,0.536,1.023,0.735,0.340,0.594,0.558,��,5.2,��
2022/08/20,07:40,0.598,0.847,0.536,1.026,0.737,0.341,0.594,0.559,��,5.5,��
2022/08/20,07:50,0.597,0.844,0.536,1.021,0.733,0.341,0.595,0.557,��,6.1,�L
2022/08/20,08:00,0.597,0.845,0.535,1.023,0.735,0.340,0.596,0.559,��,6.6,��
2022/08/20,08:10,0.597,0.843,0.535,1.022,0.737,0.341,0.594,0.559,��,6.2,��
2022/08/20,08:20,0.597,0.844,0.536,1.024,0.735,0.342,0.596,0.558,��,5.5,��
2022/08/20,08:30,0.597,0.844,0.536,1.023,0.735,0.341,0.594,0.558,��,6.3,��
2022/08/20,08:40,0.596,0.847,0.537,1.022,0.735,0.343,0.596,0.560,��,4.7,��
2022/08/20,08:50,0.598,0.845,0.535,1.023,0.733,0.343,0.596,0.558,��,7.1,��
2022/08/20,09:00,0.598,0.847,0.537,1.025,0.737,0.343,0.595,0.558,��,6.1,��
2022/08/20,09:10,0.597,0.848,0.536,1.023,0.736,0.342,0.594,0.557,��,6.9,��
2022/08/20,09:20,0.596,0.846,0.536,1.026,0.735,0.342,0.592,0.557,��쓌,6.2,��
2022/08/20,09:30,0.598,0.845,0.537,1.023,0.735,0.342,0.592,0.556,��,7.8,��
2022/08/20,09:40,0.598,0.847,0.538,1.022,0.737,0.344,0.594,0.556,��,7.4,��
2022/08/20,09:50,0.598,0.847,0.537,1.024,0.737,0.343,0.596,0.556,��,7.3,��
2022/08/20,10:00,0.599,0.846,0.535,1.024,0.738,0.343,0.593,0.557,��,7.5,��
2022/08/20,10:10,0.597,0.845,0.535,1.022,0.737,0.343,0.594,0.556,��,7.8,��
2022/08/20,10:20,0.596,0.848,0.536,1.027,0.738,0.344,0.593,0.555,��,7.8,��
2022/08/20,10:30,0.597,0.848,0.538,1.024,0.740,0.344,0.592,0.557,��,10.4,��
2022/08/20,10:40,0.599,0.849,0.539,1.023,0.739,0.343,0.591,0.554,��,10.9,��
2022/08/20,10:50,0.599,0.846,0.537,1.024,0.739,0.342,0.592,0.555,��,10.7,��
2022/08/20,11:00,0.599,0.847,0.536,1.024,0.738,0.343,0.592,0.556,��,10.2,��
2022/08/20,11:10,0.597,0.845,0.535,1.023,0.737,0.342,0.593,0.556,��,9.7,��
2022/08/20,11:20,0.597,0.844,0.534,1.025,0.736,0.343,0.590,0.558,��,8.7,��
2022/08/20,11:30,0.598,0.847,0.535,1.023,0.737,0.341,0.591,0.557,��,9.4,��
2022/08/20,11:40,0.598,0.846,0.537,1.025,0.736,0.342,0.593,0.555,��,9.3,��
2022/08/20,11:50,0.597,0.846,0.536,1.024,0.738,0.343,0.592,0.556,��,9.8,��
2022/08/20,12:00,0.598,0.845,0.537,1.024,0.739,0.342,0.594,0.555,��,8.5,��
2022/08/20,12:10,0.597,0.845,0.538,1.025,0.738,0.342,0.593,0.555,��,8.4,��
2022/08/20,12:20,0.599,0.845,0.537,1.023,0.738,0.343,0.593,0.558,��,8.6,��
2022/08/20,12:30,0.598,0.845,0.537,1.025,0.740,0.343,0.594,0.556,��,10.3,��
2022/08/20,12:40,0.600,0.846,0.537,1.025,0.738,0.341,0.594,0.559,��,9.1,��
2022/08/20,12:50,0.597,0.846,0.536,1.025,0.739,0.343,0.594,0.558,��,10.2,��
2022/08/20,13:00,0.599,0.847,0.538,1.023,0.738,0.341,0.594,0.559,��,9.2,��
2022/08/20,13:10,0.598,0.847,0.536,1.025,0.738,0.341,0.594,0.558,��,9.6,��
2022/08/20,13:20,0.598,0.845,0.536,1.026,0.738,0.341,0.594,0.558,��,9.1,��
2022/08/20,13:30,0.596,0.847,0.538,1.027,0.738,0.344,0.594,0.559,��,9.0,��
2022/08/20,13:40,0.598,0.848,0.537,1.025,0.738,0.342,0.593,0.559,��,8.5,�L
2022/08/20,13:50,0.597,0.846,0.536,1.026,0.738,0.343,0.593,0.558,��,8.3,�L
2022/08/20,14:00,0.597,0.849,0.537,1.025,0.739,0.343,0.595,0.558,��,7.4,��
2022/08/20,14:10,0.600,0.848,0.538,1.026,0.740,0.343,0.594,0.560,��,7.2,�L
2022/08/20,14:20,0.599,0.849,0.538,1.026,0.740,0.344,0.596,0.560,��,5.2,�L
2022/08/20,14:30,0.598,0.850,0.541,1.027,0.740,0.343,0.594,0.561,��,3.2,�L
2022/08/20,14:40,0.600,0.850,0.537,1.028,0.739,0.344,0.594,0.560,��쐼,4.4,�L
2022/08/20,14:50,0.600,0.849,0.538,1.027,0.740,0.344,0.594,0.557,��쐼,5.1,�L
2022/08/20,15:00,0.601,0.853,0.541,1.025,0.742,0.346,0.593,0.560,��쐼,5.0,�L
2022/08/20,15:10,0.605,0.851,0.543,1.029,0.741,0.346,0.594,0.560,��쐼,6.7,�L
2022/08/20,15:20,0.605,0.854,0.544,1.029,0.744,0.351,0.596,0.559,��쐼,8.5,�L
2022/08/20,15:30,0.608,0.855,0.546,1.031,0.741,0.351,0.596,0.559,��,7.5,�L
2022/08/20,15:40,0.606,0.853,0.545,1.031,0.742,0.350,0.595,0.562,��쐼,6.8,�L
2022/08/20,15:50,0.605,0.852,0.545,1.031,0.742,0.350,0.595,0.562,��쐼,6.8,�L
2022/08/20,16:00,0.603,0.851,0.543,1.030,0.741,0.350,0.594,0.559,��쐼,8.4,�L
2022/08/20,16:10,0.604,0.848,0.544,1.032,0.738,0.349,0.594,0.559,��쐼,8.9,�L
2022/08/20,16:20,0.602,0.850,0.542,1.030,0.739,0.350,0.591,0.559,��쐼,8.4,�L
2022/08/20,16:30,0.605,0.847,0.543,1.029,0.738,0.350,0.592,0.560,��쐼,7.1,�L
2022/08/20,16:40,0.602,0.849,0.542,1.030,0.736,0.346,0.592,0.558,��쐼,6.9,�L
2022/08/20,16:50,0.604,0.846,0.542,1.028,0.736,0.348,0.592,0.559,��쐼,5.0,�L
2022/08/20,17:00,0.605,0.846,0.542,1.028,0.735,0.348,0.591,0.558,��,2.0,�L
2022/08/20,17:10,0.601,0.846,0.541,1.026,0.732,0.348,0.593,0.558,��,3.3,�L
2022/08/20,17:20,0.599,0.845,0.540,1.029,0.732,0.348,0.591,0.556,��,4.9,�L
2022/08/20,17:30,0.599,0.842,0.537,1.023,0.732,0.346,0.590,0.558,��,5.1,�L
2022/08/20,17:40,0.599,0.839,0.536,1.025,0.729,0.345,0.590,0.555,��,5.3,�L
2022/08/20,17:50,0.596,0.842,0.537,1.023,0.729,0.345,0.590,0.557,��,6.3,�L
2022/08/20,18:00,0.598,0.841,0.536,1.022,0.730,0.345,0.590,0.556,��,5.9,�L
2022/08/20,18:10,0.598,0.840,0.537,1.024,0.729,0.344,0.590,0.556,��쐼,5.6,�L
2022/08/20,18:20,0.598,0.838,0.536,1.023,0.729,0.346,0.589,0.556,��쐼,6.1,�L
2022/08/20,18:30,0.598,0.839,0.537,1.022,0.729,0.346,0.591,0.557,��쐼,6.4,�L
2022/08/20,18:40,0.596,0.841,0.538,1.024,0.730,0.344,0.590,0.558,��쐼,5.4,�L
2022/08/20,18:50,0.597,0.841,0.536,1.022,0.728,0.344,0.590,0.557,��,6.4,�L
2022/08/20,19:00,0.595,0.838,0.535,1.021,0.729,0.343,0.591,0.556,��,6.5,�L
2022/08/20,19:10,0.597,0.837,0.534,1.022,0.725,0.342,0.590,0.557,��,7.4,�L
2022/08/20,19:20,0.595,0.839,0.535,1.020,0.725,0.342,0.589,0.556,��,7.1,�L
2022/08/20,19:30,0.595,0.840,0.534,1.021,0.725,0.343,0.589,0.554,��,6.6,�L
2022/08/20,19:40,0.594,0.838,0.535,1.022,0.725,0.342,0.588,0.555,��,5.6,�L
2022/08/20,19:50,0.594,0.837,0.532,1.021,0.727,0.343,0.590,0.554,��,4.7,�L
2022/08/20,20:00,0.595,0.839,0.533,1.017,0.725,0.342,0.591,0.556,��,5.7,�L
2022/08/20,20:10,0.594,0.837,0.534,1.017,0.727,0.342,0.589,0.556,��,6.0,�L
2022/08/20,20:20,0.595,0.838,0.533,1.021,0.726,0.340,0.589,0.555,��,6.3,�L
2022/08/20,20:30,0.595,0.836,0.531,1.018,0.725,0.341,0.588,0.556,��,4.2,�L
2022/08/20,20:40,0.594,0.837,0.532,1.017,0.724,0.341,0.590,0.554,��,4.8,�L
2022/08/20,20:50,0.594,0.837,0.531,1.019,0.725,0.341,0.588,0.555,��,5.1,�L
2022/08/20,21:00,0.595,0.839,0.532,1.020,0.726,0.340,0.590,0.555,��,4.4,�L
2022/08/20,21:10,0.596,0.838,0.532,1.019,0.724,0.340,0.589,0.555,��,4.7,�L
2022/08/20,21:20,0.594,0.837,0.532,1.018,0.726,0.340,0.589,0.555,��,4.0,�L
2022/08/20,21:30,0.595,0.839,0.533,1.020,0.726,0.343,0.590,0.554,��쐼,4.0,�L
2022/08/20,21:40,0.595,0.837,0.532,1.019,0.726,0.340,0.588,0.554,��쐼,6.2,�L
2022/08/20,21:50,0.595,0.836,0.532,1.019,0.725,0.341,0.589,0.556,��쐼,4.9,�L
2022/08/20,22:00,0.593,0.838,0.531,1.019,0.726,0.342,0.591,0.556,��쐼,4.8,�L
2022/08/20,22:10,0.594,0.836,0.530,1.019,0.724,0.341,0.590,0.555,��쐼,4.6,�L
2022/08/20,22:20,0.594,0.837,0.532,1.018,0.726,0.341,0.591,0.556,��쐼,3.6,�L
2022/08/20,22:30,0.593,0.836,0.531,1.016,0.725,0.342,0.591,0.555,��쐼,4.6,��
2022/08/20,22:40,0.593,0.836,0.532,1.017,0.725,0.340,0.589,0.555,��쐼,4.1,��
2022/08/20,22:50,0.593,0.837,0.531,1.020,0.724,0.343,0.591,0.555,��쐼,4.8,��
2022/08/20,23:00,0.591,0.837,0.530,1.018,0.723,0.340,0.591,0.554,��쐼,4.7,��
2022/08/20,23:10,0.591,0.837,0.532,1.018,0.724,0.341,0.592,0.554,��쐼,2.0,��
2022/08/20,23:20,0.593,0.835,0.531,1.019,0.725,0.340,0.589,0.553,�쐼,3.7,��
2022/08/20,23:30,0.591,0.835,0.531,1.017,0.726,0.341,0.591,0.554,�쐼,3.4,��
2022/08/20,23:40,0.593,0.833,0.530,1.018,0.724,0.341,0.592,0.554,�쐼,1.5,��
2022/08/20,23:50,0.592,0.837,0.530,1.017,0.726,0.341,0.592,0.554,�쐼,1.7,��
